Location: Chinna Viriv?da
(16.5281°N, 81.0493°E)
Time: 10:37:09
(UTC+00:00)

Cosmos 2360 Rocket - Pass Details

Date: 14 April 2026
Orbit: 831 x 845 km, 71.0° (Epoch: 20 May)

Event Time Altitude Azimuth Distance (km) Brightness Sun altitude
Rises 23:24:39 0° 346° (NNW) 3,396 5.4 -14.0°
Reaches altitude 10° 23:27:06 10° 348° (NNW) 2,460 4.7 -13.4°
Maximum altitude 23:32:45 75° 74° (ENE) 873 2.4 -12.1°
Drops below altitude 10° 23:38:23 10° 159° (SSE) 2,454 4.7 -10.8°
Sets 23:40:49 0° 160° (SSE) 3,387 5.4 -10.2°
